www.pogodaiklimat.ru

Погода и климат >> Архив погоды >> Россия >> Кабардино-Балкария >> Прохладный


ПОГОДА в Прохладный

  • Прогноз погоды в Прохладный
  • Монитор погоды в Прохладный

АРХИВ ПОГОДЫ в Прохладный

Время (UTC), дата Ветер
(напр.,м/с)
 
Видим.   Явления Облачность Т
(С)
Тd
(С)
f
(%)
Тe
(С)
Тes
(С)
Комфортность P
(гПа)
Po
(гПа)
Тmin
(С)
Tmax
(С)
R
(мм)
R24
(мм)
S
(см)
09 9.07 СЗ 3 20 км 3/3 1000 м
[Sc]
+30.3 +10.5 29 +30 +41 жарко 1008.1 985.8
12 9.07 СЗ 2 20 км 8/5 600 м
[Cb cap]
+30.6 +11.4 31 +31 +35 жарко 1007.5 985.2
15 9.07 ЮЗ 3 20 км в посл. час гроза {ливн. осадки} 10/10 600 м
[Cb cap]
+25.5 +16.2 56 +29 +29 душно 1008.8 986.2 +33.2 0.5
18 9.07 Ю 1 20 км {гроза, ливн. осадки} 9/6
[Cb cap Ac trans]
+22.6 +16.2 67 +27 +27 душно 1010.7 987.8
21 9.07 ЮЗ 1 20 км 10/10 600 м
[Cb cap]
+22.4 +15.9 67 +27 +27 душно 1010.7 987.8
00 10.07 ЮЗ 1 20 км 9/9 600 м
[Sc]
+21.4 +15.2 68 +25 +25 комфорт 1010.8 987.8
03 10.07 З 1 20 км 9/9 600 м
[Cb cap]
+21.1 +13.5 62 +24 +24 комфорт 1010.9 987.9 +21.0
06 10.07 В 1 20 км 9/5 600 м
[Sc Ac trans]
+24.3 +7.9 35 +25 +28 комфорт 1009.8 986.9
09 10.07 В 2 20 км 3/0
[Ac trans]
+28.2 +8.6 29 +28 +44 жарко 1007.7 985.2
12 10.07 Ю 2 20 км 3/3 600 м
[Cu med, cong]
+30.2 +10.0 29 +30 +39 жарко 1005.8 983.5
15 10.07 Ю 2 20 км 6/6 600 м
[Cu Sc]
+28.6 +13.1 38 +30 +31 жарко 1005.7 983.3 +30.9
18 10.07 Ю 1 20 км 3/0
[Ac trans]
+23.8 +14.4 56 +26 +26 жарко 1006.8 984.0
21 10.07 штиль 0 20 км ясно +20.3 +15.2 73 +23 +23 комфорт 1006.2 983.2
00 11.07 ЮЗ 1 20 км ясно +18.7 +15.4 81 +21 +21 комфорт 1005.3 982.2
03 11.07 Ю 2 20 км 8/5 600 м
[Sc Ac lent]
+18.5 +15.6 83 +20 +20 1005.4 982.3 +17.3
06 11.07 ЮЗ 1 20 км 4/3 600 м
[Sc Ac cast]
+25.7 +14.9 51 +28 +37 жарко 1004.0 981.4
09 11.07 В 2 20 км 3/0
[Ac cast]
+30.8 +12.4 32 +31 +47 жарко 1001.7 979.5
12 11.07 ЮВ 2 20 км 4/4 600 м
[Cu med, cong]
+31.9 +15.3 37 +34 +42 душно 999.9 977.9
15 11.07 штиль 0 20 км 4/4 600 м
[Cu Sc Ac lent Ci fib]
+31.5 +15.3 38 +34 +35 душно 999.7 977.7 +32.6
18 11.07 З 4-10
{10}
20 км 8/8 600 м
[Cu Sc]
+26.4 +13.4 45 +28 +28 жарко 1001.7 979.2
21 11.07 З 4
{11}
20 км 8/4 600 м
[Cu Sc Ac lent]
+21.3 +13.8 62 +24 +24 комфорт 1003.2 980.3
00 12.07 З 3 н/о н/о +19.3 +13.3 68 +21 +21 комфорт 1002.4 979.4
03 12.07 СЗ 3 10 км слаб. ливневой дождь 10/10 600 м
[Cb cap]
+17.7 +15.6 88 +18 +18 1001.9 978.8 +17.7 0.3
06 12.07 СЗ 3 4000 м дымка {ливн. осадки} 10/10 600 м
[Cb cap]
+18.0 +16.0 88 +18 +18 1004.0 980.9 +17.3
09 12.07 СЗ 3
{10}
20 км слаб. ливневой дождь 10/10 600 м
[Cb cap]
+19.2 +14.8 76 +21 +21 комфорт 1005.9 982.8
12 12.07 СЗ 3 20 км {ливн. осадки} 10/10 600 м
[Cb cap]
+21.0 +14.1 65 +24 +24 комфорт 1007.7 984.7
15 12.07 СЗ 4 20 км 9/9 600 м
[Cb cap]
+21.0 +13.4 62 +24 +24 комфорт 1008.8 985.8 +22.8 0.5
18 12.07 штиль 0 20 км 10/10 600 м
[Sc]
+19.3 +13.9 71 +21 +21 комфорт 1010.7 987.5
21 12.07 Ю 1 20 км 10/10 600 м
[Sc]
+18.6 +14.6 78 +20 +20 1010.3 987.1
00 13.07 СВ 1 20 км 10/10 600 м
[Sc]
+17.6 +15.0 85 +19 +19 1010.0 986.6
03 13.07 В 1 4000 м дымка 10/10 600 м
[Cb cap]
+17.2 +15.7 91 +18 +18 1009.3 986.0 +17.1
06 13.07 В 2 20 км {ливн. осадки} 10/10 600 м
[Sc]
+19.1 +13.8 71 +21 +21 комфорт 1010.0 986.8
09 13.07 СВ 2 20 км 9/6 600 м
[Sc diur, vesp Ac cuf]
+23.3 +12.2 50 +26 +30 жарко 1010.1 987.2
12 13.07 В 2 20 км 8/8 600 м
[Cu Sc]
+25.1 +10.2 39 +26 +28 жарко 1009.0 986.2
15 13.07 Ю 1 20 км 8/5 600 м
[Sc Ac lent Ci]
+24.2 +10.3 41 +25 +26 комфорт 1009.2 986.4 +26.8 0.0
18 13.07 СЗ 2 20 км 10/10 600 м
[Cb cap]
+21.6 +12.5 56 +24 +24 комфорт 1010.8 987.8
21 13.07 З 1 20 км 10/10 600 м
[Cb cap]
+19.6 +15.4 77 +23 +23 комфорт 1010.7 987.5
00 14.07 ЮЗ 1 20 км 10/10 600 м
[Sc]
+18.8 +13.9 73 +21 +21 комфорт 1010.3 987.1
03 14.07 СЗ 2 10 км слаб. ливневой дождь 10/10 600 м
[Cb cap]
+17.6 +15.3 86 +18 +18 1011.1 987.8 +17.6 0.3
06 14.07 СЗ 1 4000 м слаб. ливневой дождь 10/10 600 м
[Cb cap]
+16.1 +14.9 93 +17 +17 1012.7 989.2 +16.1
09 14.07 Ю 1 20 км {ливн. осадки} 8/8 600 м
[Cb cap]
+21.2 +11.7 55 +23 +28 комфорт 1011.7 988.6
12 14.07 ЮВ 1 20 км {ливн. осадки} 8/8 600 м
[Cu med, cong]
+25.2 +12.3 45 +27 +30 жарко 1010.0 987.3
15 14.07 СВ 1 20 км 8/4 600 м
[Cb cap Cs]
+24.3 +11.5 45 +26 +27 жарко 1009.6 986.8 +25.7 4
18 14.07 штиль 0 20 км 6/0
[Ac cast Cc]
+19.6 +14.7 73 +21 +21 комфорт 1010.0 986.8
21 14.07 штиль 0 20 км 3/0
[Cc]
+16.4 +15.2 93 +16 +16 1008.7 985.3
00 15.07 штиль 0 4000 м дымка 6/0
[Cc]
+15.9 +14.9 94 +16 +16 1007.9 984.5
03 15.07 штиль 0 4000 м дымка 8/8 600 м
[Sc]
+16.6 +15.1 91 +16 +17 1007.3 983.9 +15.4
06 15.07 СВ 2 20 км 1/0
[Ac lent]
+24.0 +11.6 46 +26 +36 жарко 1005.9 983.2
09 15.07 В 4 20 км 1/1 600 м
[Cu med, cong]
+27.3 +11.1 36 +28 +40 жарко 1003.9 981.4
12 15.07 В 3 20 км 4/4 600 м
[Cu Sc]
+30.1 +12.4 34 +31 +37 жарко 1001.6 979.4
15 15.07 СВ 2 20 км 10/10 600 м
[Cb cap]
+27.5 +14.7 46 +30 +30 жарко 1001.1 978.7 +30.4
18 15.07 СВ 2 10 км слаб. ливневой дождь 10/10 600 м
[Cb cap]
+21.5 +17.4 77 +26 +26 душно 1005.1 982.2
21 15.07 З 2 4000 м дымка {гроза, ливн. осадки} 10/10 600 м
[Cb cap]
+19.3 +18.6 96 +22 +22 комфорт 1006.7 983.7
00 16.07 ЮЗ 1 4000 м дымка {гроза, ливн. осадки} 10/10 600 м
[Cb cap]
+18.3 +18.0 98 +20 +20 1005.7 982.5
03 16.07 З 1 4000 м дымка 8/5 600 м
[Cb cap Cc]
+18.5 +18.2 98 +20 +21 1005.4 982.3 +17.9 8
06 16.07 С 2 20 км 8/6 600 м
[Cb cap Ac cast]
+23.0 +18.5 76 +29 +32 очень
душно
1005.8 983.1

 

Местоположение метеостанции Прохладный (Кабардино-Балкария, Россия): широта 43.75 долгота 44.05 высота над уровнем моря 200 м.

В архиве по умолчанию представлена погода в Прохладный за последнюю неделю. Архивные данные за месяц целиком и за предыдущие месяцы, начиная с января 2011 года, Вы можете получить, выбрав интересующий диапазон дат из раскрывающегося списка и нажав кнопку "Ввод!".


*Определитесь, кто Вы:
робот инопланетянин человек

Внимание! Время в таблицах - всемирное. Для получения местного времени необходимо прибавить поправку, которая равна 3 ч.

Смотрите также архив погоды в соседних городах и на ближайших метеорологических станциях:

Погода в Нальчике (Кабардино-Балкария, Россия) (42 км)
Погода в Моздоке (Северная Осетия, Россия) (50 км)
Погода в Георгиевске (Ставропольский край, Россия) (64 км)
Погода в Зеленокумске (Ставропольский край, Россия) (77 км)
Погода в Алагире (Северная Осетия, Россия) (77 км)
Погода в Минеральных Водах (Ставропольский край, Россия) (92 км)
Погода в Назрани (Ингушетия, Россия) (93 км)
Погода в Владикавказе (Северная Осетия, Россия) (95 км)
Погода в Тырныаузе (Кабардино-Балкария, Россия) (100 км)
Погода в Рощино (Ставропольский край, Россия) (102 км)

Пояснения к столбцам:

Ветер - указаны скорость ветра в м/с - средняя за 10 мин, порывы в срок и между сроками (в фигурных скобках) и направление, откуда дует ветер: С - северный, СВ - северо-восточный, В - восточный, ЮВ - юго-восточный, Ю - южный, ЮЗ - юго-западный, З - западный, СЗ - северо-западный.
Видимость - горизонтальная дальность видимости в метрах или километрах. При видимости от 1 до 10 км при отсутствии осадков обычно наблюдается дымка, при ухудшении видимости до 1 км и менее - туман. В сухую погоду видимость может ухудшаться дымом, пылью или мглою.
Явления - указаны атмосферные явления, наблюдавшиеся в срок или в последний час перед сроком; фигурными скобками обозначены явления, наблюдавшиеся между сроками (за 1-3 часа до срока); квадратными скобками обозначены град или гололедные отложения с указанием их диаметра в мм.
Облачность - указаны через наклонную черту общая и нижняя облачность в баллах и высота нижней границы облаков в метрах; квадратными скобками обозначены формы облаков: Ci - перистые, Cs - перисто-слоистые, Cc - перисто-кучевые, Ac - высококучевые, As - высокослоистые, Sc - слоисто-кучевые, Ns - слоисто-дождевые, Cu - кучевые, Cb - кучево-дождевые. Подробнее классификацию облаков см. в Атласе облаков (PDF).
T - Температура воздуха - температура, измеренная на высоте 2 м над землей.
Td - Температура точки росы - температура, при понижении до которой содержащийся в воздухе водяной пар достигнет насыщения.
f - Относительная влажность воздуха - влажноcть воздуха, измеренная на высоте 2 м над землей.
Te - Эффективная температура - температура, которую ощущает одетый по сезону человек в тени. Характеристика душности погоды. При расчете учитывается влияние влажности воздуха и скорости ветра на теплоощущения человека.
Tes - Эффективная температура на солнце - температура, которую ощущает человек, с поправкой на солнечный нагрев. Характеристика знойности погоды. Зависит от высоты солнца над горизонтом, облачности и скорости ветра. Ночью, в пасмурную погоду, а также при ветре 12 м/с и более поправка равна нулю.
P - Атмосферное давление - приведенное к уровню моря атмосферное давление.
Po - Атмосферное давление - измеренное на уровне метеостанции атмосферное давление.
Tmin - Минимальная температура - минимум температуры воздуха на высоте 2 м над землей.
Tmax - Максимальная температура - максимум температуры воздуха на высоте 2 м над землей.
R - Количество осадков - Количество выпавших осадков за период времени, мм. При наведении курсора мыши на число - период времени, за который выпало указанное количество осадков.
R24 - Количество осадков - Количество выпавших осадков за 24 часа, мм.
S - Снежный покров - Высота снежного покрова, см. При наведении курсора мыши на число - состояние снежного покрова и степень покрытия местности в баллах.